Weather History for KBKW - May, 2014

Change the Weather History Date:

Tuesday, May 6, 2014

  Actual Average Record
Temperature  
Mean Temperature 67 °F 58 °F  
Max Temperature 78 °F 68 °F 88 °F (1950)
Min Temperature 55 °F 47 °F 29 °F (1957)
Degree Days  
Heating Degree Days 0 8  
Month to date heating degree days 41 51  
Since 1 July heating degree days 5367 5160  
Cooling Degree Days 2 0  
Month to date cooling degree days 2 0  
Year to date cooling degree days 7 10  
Growing Degree Days 16 (Base 50)    
Moisture  
Dew Point 48 °F    
Average Humidity 56    
Maximum Humidity 80    
Minimum Humidity 32    
Precipitation  
Precipitation 0.00 in 0.14 in 1.39 in (1984)
Month to date precipitation 0.06 0.84  
Year to date precipitation 10.31 13.34  
Snow  
Snow 0.00 in - - ()
Month to date snowfall 0.0  
Since 1 September snowfall 76.3  
Snow Depth 0.00 in    
Sea Level Pressure  
Sea Level Pressure 29.89 in    
Wind  
Wind Speed 6 mph (NNW)    
Max Wind Speed 17 mph    
Max Gust Speed 22 mph    
Visibility 10 miles    
Events      
T = Trace of Precipitation, MM = Missing Value Source: NWS Daily Summary

Daily Weather History Graph

Daily Weather History Graph

Search for Another Location

Airport or City:

Trip Planner

Search our weather history database for the weather conditions in past years. The results will help you decide how hot, cold, wet, or windy it might be!

Date:

Astronomy

May. 06, 2014 Rise Set
Actual Time 6:23 AM EDT 8:19 PM EDT
Civil Twilight 5:54 AM EDT 8:48 PM EDT
Nautical Twilight 5:19 AM EDT 9:23 PM EDT
Astronomical Twilight 4:42 AM EDT 10:00 PM EDT
Moon 12:36 PM EDT (5/6) 1:38 AM EDT (5/6)
Length of Visible Light 14h 53m
Length of Day
13h 56m
Waxing Crescent, 46% of the Moon is Illuminated
May 6
Waxing Crescent
May 6
First Quarter
May 14
Full
May 21
Last Quarter
May 28
New

Hourly Weather History & Observations

Time (EDT) Temp. Dew Point Humidity Pressure Visibility Wind Dir Wind Speed Gust Speed Precip Events Conditions
12:51 AM 57.9 °F 51.1 °F 78% 29.85 in 10.0 mi SSE 9.2 mph - N/A   Clear
1:51 AM 57.0 °F 50.0 °F 77% 29.84 in 10.0 mi Calm Calm - N/A   Clear
2:51 AM 57.0 °F 48.9 °F 74% 29.84 in 10.0 mi SSW 4.6 mph - N/A   Clear
3:51 AM 60.1 °F 48.0 °F 64% 29.82 in 10.0 mi Calm Calm - N/A   Clear
7:51 AM 60.8 °F 51.8 °F 72% 29.97 in 10.0 mi NNE 3.5 mph - N/A   Overcast
8:51 AM 63.0 °F 50.0 °F 63% 29.91 in 10.0 mi North 3.5 mph - N/A   Overcast
10:51 AM 69.1 °F 50.0 °F 51% 29.91 in 10.0 mi West 11.5 mph - N/A   Partly Cloudy
11:51 AM 72.0 °F 48.9 °F 44% 29.91 in 10.0 mi WSW 16.1 mph - N/A   Clear
12:51 PM 75.9 °F 48.0 °F 37% 29.89 in 10.0 mi NNW 15.0 mph 20.7 mph N/A   Mostly Cloudy
1:51 PM 75.9 °F 48.9 °F 38% 29.88 in 10.0 mi NW 12.7 mph - N/A   Scattered Clouds
2:51 PM 77.0 °F 48.0 °F 36% 29.88 in 10.0 mi NW 9.2 mph - N/A   Partly Cloudy
3:51 PM 77.0 °F 48.0 °F 36% 29.86 in 10.0 mi NW 12.7 mph 17.3 mph N/A   Clear
4:51 PM 78.1 °F 46.9 °F 33% 29.87 in 10.0 mi North 10.4 mph - N/A   Clear
5:51 PM 77.0 °F 46.9 °F 34% 29.88 in 10.0 mi NNE 10.4 mph - N/A   Clear
6:51 PM 75.9 °F 46.9 °F 36% 29.88 in 10.0 mi North 10.4 mph - N/A   Clear
7:51 PM 72.0 °F 46.0 °F 40% 29.91 in 10.0 mi NNE 8.1 mph - N/A   Clear
8:51 PM 69.1 °F 46.0 °F 44% 29.93 in 10.0 mi NNE 3.5 mph - N/A   Clear
9:51 PM 63.0 °F 46.9 °F 56% 29.95 in 10.0 mi ESE 3.5 mph - N/A   Clear
10:51 PM 63.0 °F 46.9 °F 56% 29.96 in 10.0 mi Calm Calm - N/A   Clear
11:51 PM 62.1 °F 46.9 °F 58% 29.95 in 10.0 mi Calm Calm - N/A   Clear